Moses Lake, WA
on Tuesday, December 25, 2012

Tuesday
Previous Day Next Day
Daily Summary
 ActualAverageRecord
Temperature
Mean Temperature °F 28°F  
Max Temperature 33°F 34°F 42°F (1980)
Min Temperature 26°F 21°F -5°F (1983)
Degree Days
Heating Degree Days 35 38  
Month to date heating degree days 721 901  
Since 1 July heating degree days 1989 2362  
Cooling Degree Days 0 0  
Month to date cooling degree days 0 0  
Year to date cooling degree days 719 615  
Moisture
Dew Point 27°F   
Average Humidity 84    
Maximum Humidity 92    
Minimum Humidity 75    
Precipitation
Precipitation 0.11 in 0.06 in 0.43 in (1998)
Month to date precipitation 1.78 1.11  
Year to date precipitation 9.52 8.78  
Wind
Wind Speed 4 mph   
Max Wind Speed 9 mph   
Max Gust Speed 10 mph   
Visibility 6 miles   
Events Snow   

Key: T is trace of precipitation, MM is missing value
Source: NWS Daily Summary
Time(PST)TemperatureDew PointHumidity Pressure Visibility Wind DirectionWind SpeedGust SpeedPrecipitationEvents Conditions
12:52 AM 26.1°F 21.9°F 84% 30.17 in 10.0 miles NNE 5.8 mph - N/A   Clear
1:52 AM 26.1°F 23.0°F 88% 30.16 in 10.0 miles North 8.1 mph - N/A   Clear
2:52 AM 26.1°F 23.0°F 88% 30.15 in 10.0 miles North 5.8 mph - N/A   Clear
3:52 AM 27.0°F 23.0°F 85% 30.13 in 10.0 miles North 6.9 mph - N/A   Clear
4:52 AM 27.0°F 23.0°F 85% 30.10 in 10.0 miles NNE 5.8 mph - N/A   Clear
5:52 AM 27.0°F 23.0°F 85% 30.08 in 10.0 miles NE 8.1 mph - N/A   Clear
6:52 AM 27.0°F 23.0°F 85% 30.06 in 10.0 miles North 6.9 mph - N/A   Clear
7:52 AM 27.0°F 23.0°F 85% 30.04 in 10.0 miles North 6.9 mph - N/A   Clear
8:52 AM 28.9°F 25.0°F 85% 30.02 in 10.0 miles North 6.9 mph - N/A   Partly Cloudy
9:52 AM 30.9°F 26.1°F 82% 30.01 in 10.0 miles NNE 6.9 mph - N/A   Overcast
10:52 AM 32.0°F 27.0°F 82% 29.97 in 10.0 miles NE 5.8 mph - N/A   Overcast
11:52 AM 33.1°F 26.1°F 75% 29.94 in 10.0 miles Calm Calm - N/A   Overcast
12:52 PM 33.1°F 26.1°F 75% 29.91 in 10.0 miles Calm Calm - N/A   Overcast
1:39 PM 33.8°F 26.6°F 75% 29.87 in 2.5 miles Calm Calm - 0.00 in Snow Light Snow
1:52 PM 32.0°F 26.1°F 79% 29.91 in 1.5 miles Calm Calm - 0.00 in Snow Light Snow
2:07 PM 30.2°F 26.6°F 86% 29.86 in 0.8 miles ENE 4.6 mph - 0.01 in Snow Light Snow
2:26 PM 30.2°F 26.6°F 86% 29.85 in 0.8 miles NE 4.6 mph - 0.02 in Snow Light Snow
2:35 PM 30.2°F 28.4°F 93% 29.85 in 1.2 miles NNE 6.9 mph - 0.03 in Snow Light Snow
2:52 PM 30.9°F 28.0°F 89% 29.89 in 0.8 miles NE 4.6 mph - 0.03 in Snow Light Snow
3:03 PM 30.2°F 28.4°F 93% 29.86 in 1.0 miles NNE 4.6 mph - 0.01 in Snow Light Snow
3:35 PM 30.2°F 28.4°F 93% 29.85 in 1.0 miles NNE 4.6 mph - 0.02 in Snow Light Snow
3:52 PM 30.9°F 28.0°F 89% 29.89 in 1.0 miles NNE 4.6 mph - 0.03 in Snow Light Snow
4:25 PM 32.0°F 28.4°F 87% 29.85 in 1.2 miles North 4.6 mph - 0.02 in Snow Light Snow
4:37 PM 30.2°F 28.4°F 93% 29.85 in 1.5 miles North 4.6 mph - 0.02 in Snow Light Snow
4:41 PM 30.2°F 28.4°F 93% 29.84 in 1.5 miles North 4.6 mph - 0.02 in Snow Light Snow
4:52 PM 32.0°F 28.9°F 88% 29.88 in 1.8 miles NNE 4.6 mph - 0.03 in Snow Light Snow
5:01 PM 32.0°F 28.4°F 87% 29.84 in 2.5 miles NNE 5.8 mph - 0.00 in Snow Light Snow
5:12 PM 32.0°F 28.4°F 87% 29.84 in 3.0 miles NNE 4.6 mph - 0.00 in Snow Light Snow
5:24 PM 32.0°F 28.4°F 87% 29.84 in 3.0 miles NNE 4.6 mph - 0.00 in Snow Light Snow
5:52 PM 32.0°F 28.9°F 88% 29.88 in 2.0 miles NE 3.5 mph - 0.01 in Snow Light Snow
5:59 PM 32.0°F 28.4°F 87% 29.84 in 1.5 miles ENE 3.5 mph - 0.00 in Snow Light Snow
6:07 PM 32.0°F 28.4°F 87% 29.83 in 2.0 miles NE 3.5 mph - 0.00 in Snow Light Snow
6:19 PM 32.0°F 28.4°F 87% 29.83 in 3.0 miles ENE 4.6 mph - 0.00 in Snow Light Snow
6:52 PM 32.0°F 30.0°F 92% 29.88 in 10.0 miles Calm Calm - 0.00 in   Overcast
7:52 PM 33.1°F 30.0°F 89% 29.86 in 3.0 miles Calm Calm - 0.01 in Snow Light Snow
8:52 PM 33.1°F 30.0°F 89% 29.86 in 6.0 miles Calm Calm - 0.00 in   Overcast
9:52 PM 32.0°F 28.4°F 87% 29.82 in 10.0 miles North 4.6 mph - N/A   Overcast
10:52 PM 32.0°F 28.9°F 88% 29.86 in 10.0 miles North 3.5 mph - N/A   Overcast
11:52 PM 32.0°F 28.9°F 88% 29.86 in 10.0 miles North 3.5 mph - N/A   Overcast
Moon Phase
Dec. 25 Dec. 28 Jan. 04 Jan. 11 Jan. 18
Sunrise:07:42 AM (PST) Moon Rise:02:26 PM (PST)12/25
Sunset:04:12 PM (PST) Moon Set:05:16 AM (PST)12/25

Copyright © 2014 The Weather Underground, Inc.